Home > Weather > Arth > Past weeks

Flag for Switzerland Past Weather in Arth, Schwyz, Switzerland — Yesterday and Last 2 Weeks

Now
74 °F

Mild.


Feels Like: 77 °F
Forecast: 47 / 65 °F
Wind: 7 mph from Northwest

Location: Altdorf

Current Time: Jun 28, 2016 at 6:58:37 PM

Latest Report: Jun 28, 2016 at 6:00 PM


Visibility: N/A

Pressure: 29.94 "Hg

Humidity: 51%

Dew Point: 55 °F

Location of ArthLocation

Past Weather in Arth — Graph

°F

Arth Temperature Yesterday

Maximum temperature yesterday: 72 °F (at 5:00 PM)
Minimum temperature yesterday: 57 °F (at 5:00 AM)
Average temperature yesterday: 64 °F

High & Low Weather Summary for the Past Weeks

 TemperatureHumidityPressure
High87 °F (Jun 23, 5:00 PM)100% (Jun 22, 9:00 AM)30.29 "Hg (Jun 22, 9:00 AM)
Low48 °F (Jun 17, 5:00 AM)44% (Jun 27, 5:00 PM)29.58 "Hg (Jun 15, 3:00 PM)
Average62 °F80%30.00 "Hg
* Reported Jun 13 5:00 PM — Jun 28 5:00 PM, Arth, Weather by CustomWeather, © 2016

Note: Actual official high and low records may vary slightly from our data, if they occured in-between our weather recording intervals... More about our weather records

Advertising

Arth Weather History for the Previous 24 Hours

Scroll right to see more
 ConditionsComfort  
Time TempWeatherWind HumidityBarometerVisibility
5:00 PM
Tue, Jun 28
75 °FScattered clouds.7 mph50%29.94 "Hg16 mi
4:00 PM76 °FMild.12 mph46%29.95 "HgN/A
3:00 PM74 °FMild.8 mph54%29.98 "HgN/A
2:00 PM73 °FScattered clouds.7 mph52%30.00 "Hg14 mi
1:00 PM71 °FMild.7 mph55%30.03 "HgN/A
12:00 PM69 °FMild.6 mph56%30.06 "HgN/A
11:00 AM67 °FSunny.2 mph62%30.08 "Hg16 mi
10:00 AM64 °FMild.3 mph60%30.10 "HgN/A
9:00 AM61 °FCool.2 mph70%30.13 "HgN/A
8:00 AM55 °FSunny.1 mph80%30.15 "Hg12 mi
7:00 AM54 °FCool.2 mph82%30.15 "HgN/A
6:00 AM53 °FCool.1 mph86%30.16 "HgN/A
5:00 AM52 °FPassing clouds.2 mph89%30.17 "Hg12 mi
4:00 AM55 °FCool.2 mph81%30.16 "HgN/A
3:00 AM54 °FCool.2 mph85%30.19 "HgN/A
2:00 AM55 °FPassing clouds.1 mph86%30.19 "Hg12 mi
1:00 AM59 °FCool.1 mph74%30.19 "HgN/A
12:00 AM61 °FCool.3 mph69%30.17 "HgN/A
11:00 PM
Mon, Jun 27
62 °FCool.No wind69%30.16 "HgN/A
10:00 PM63 °FMild.1 mph66%30.15 "HgN/A
9:00 PM64 °FMild.2 mph73%30.14 "HgN/A
8:00 PM68 °FPartly sunny.2 mph53%30.10 "Hg12 mi
7:00 PM69 °FMild.5 mph53%30.09 "HgN/A
6:00 PM69 °FMild.7 mph47%30.10 "HgN/A
Weather by CustomWeather, © 2016

See weather overviewHow to use our weather pages